Weather History for Imperial, NE

Change the Weather History Date:

Wednesday, September 4, 2013

  Actual Average Record
Temperature  
Mean Temperature 83 °F 69 °F  
Max Temperature 100 °F 84 °F 106 °F (1931)
Min Temperature 66 °F 55 °F 40 °F (1968)
Degree Days  
Heating Degree Days 0 1  
Month to date heating degree days 0 4  
Cooling Degree Days 18 5  
Month to date cooling degree days 51 23  
Year to date cooling degree days 1024 889  
Growing Degree Days 32 (Base 50)    
Moisture  
Dew Point 55 °F    
Average Humidity 44    
Maximum Humidity 68    
Minimum Humidity 20    
Precipitation  
Precipitation 0.01 in 0.05 in 1.20 in (1919)
Sea Level Pressure  
Sea Level Pressure 29.99 in    
Wind  
Wind Speed 8 mph (SSE)    
Max Wind Speed 21 mph    
Max Gust Speed 26 mph    
Visibility 10 miles    
Events Rain    
T = Trace of Precipitation, MM = Missing Value Source: NWS Daily Summary

Daily Weather History Graph

Daily Weather History Graph

Search for Another Location

Airport:

Trip Planner

Search our weather history database for the weather conditions in past years. The results will help you decide how hot, cold, wet, or windy it might be!

Date:

Astronomy

Sep. 04, 2013 Rise Set
Actual Time 6:16 AM MDT 7:13 PM MDT
Civil Twilight 5:49 AM MDT 7:40 PM MDT
Nautical Twilight 5:15 AM MDT 8:13 PM MDT
Astronomical Twilight 4:41 AM MDT 8:48 PM MDT
Moon 5:30 AM MDT (9/4) 6:33 PM MDT (9/4)
Length of Visible Light 13h 51m
Length of Day
12h 56m
Waning Crescent, 1% of the Moon is Illuminated
Sep 4
Waning Crescent
Sep 5
New
Sep 12
First Quarter
Sep 19
Full
Sep 26
Last Quarter

Hourly Weather History & Observations

Time (MDT) Temp. Heat Index Dew Point Humidity Pressure Visibility Wind Dir Wind Speed Gust Speed Precip Events Conditions
12:53 AM 75.0 °F - 57.0 °F 53% 29.95 in 10.0 mi Calm Calm - N/A   Clear
1:53 AM 73.9 °F - 55.9 °F 53% 29.95 in 10.0 mi South 3.5 mph - N/A   Clear
2:53 AM 69.1 °F - 55.9 °F 63% 29.95 in 10.0 mi South 5.8 mph - N/A   Clear
3:53 AM 69.1 °F - 55.9 °F 63% 29.93 in 10.0 mi SSE 10.4 mph - N/A   Clear
4:53 AM 68.0 °F - 55.0 °F 63% 29.95 in 10.0 mi SSE 5.8 mph - N/A   Clear
5:53 AM 66.9 °F - 55.9 °F 68% 29.96 in 10.0 mi SSE 8.1 mph - N/A   Clear
6:53 AM 70.0 °F - 57.0 °F 63% 29.98 in 10.0 mi ESE 4.6 mph - N/A   Clear
7:53 AM 72.0 °F - 57.0 °F 59% 29.99 in 10.0 mi South 6.9 mph - N/A   Clear
8:53 AM 71.1 °F - 59.0 °F 66% 29.99 in 7.0 mi South 8.1 mph - 0.00 in Rain Light Rain
9:53 AM 73.0 °F - 59.0 °F 61% 30.02 in 10.0 mi Calm Calm - 0.01 in   Clear
10:53 AM 77.0 °F - 57.9 °F 52% 30.04 in 10.0 mi Calm Calm - N/A   Clear
11:53 AM 86.0 °F 85.0 °F 57.9 °F 38% 30.02 in 10.0 mi SE 10.4 mph - N/A   Clear
12:53 PM 90.0 °F 88.6 °F 57.0 °F 33% 30.00 in 10.0 mi SSE 9.2 mph - N/A   Clear
1:53 PM 93.0 °F 91.4 °F 55.9 °F 29% 29.98 in 10.0 mi ESE 10.4 mph - N/A   Clear
2:53 PM 93.9 °F 92.0 °F 55.0 °F 27% 29.97 in 10.0 mi SE 9.2 mph - N/A   Clear
3:53 PM 98.1 °F 96.4 °F 55.0 °F 24% 29.94 in 10.0 mi ESE 10.4 mph - N/A   Clear
4:53 PM 99.0 °F - 50.0 °F 19% 29.92 in 10.0 mi South 12.7 mph - N/A   Clear
5:53 PM 97.0 °F - 50.0 °F 20% 29.92 in 10.0 mi South 10.4 mph - N/A   Clear
6:53 PM 90.0 °F - 52.0 °F 27% 29.95 in 10.0 mi SSE 6.9 mph - N/A   Clear
7:53 PM 81.0 °F 80.8 °F 55.9 °F 42% 29.97 in 10.0 mi SSE 6.9 mph - N/A   Clear
8:53 PM 78.1 °F - 55.0 °F 45% 29.99 in 10.0 mi SSE 8.1 mph - N/A   Clear
9:53 PM 84.0 °F - 51.1 °F 32% 29.99 in 10.0 mi SSE 11.5 mph - N/A   Clear
10:53 PM 81.0 °F - 52.0 °F 36% 30.02 in 10.0 mi South 8.1 mph - N/A   Clear
11:29 PM 84.2 °F - 51.8 °F 33% 30.19 in 10.0 mi WNW 11.5 mph 26.5 mph N/A   Mostly Cloudy
11:53 PM 79.0 °F - 59.0 °F 50% 30.06 in 10.0 mi WNW 8.1 mph - N/A   Scattered Clouds